Regional Weather Roundup
Issued by NWS

Home | Current Version | Previous Version | Text Only | Print | Product List | Glossary On
Versions: 1 2 3 4 5 6 7 8 9 10 11 12 13 14 15 16 17 18 19 20 21 22 23 24 25 26 27 28 29 30 31 32 33 34 35 36 37 38 39 40 41 42 43 44 45 46 47 48 49 50
000
ASUS43 KLMK 292202
RWRKY
KENTUCKY REGIONAL WEATHER ROUNDUP
NATIONAL WEATHER SERVICE LOUISVILLE KY
600 PM EDT MON AUG 29 2016

NOTE "FAIR" INDICATES FEW OR NO CLOUDS BELOW 12,000 FEET
WITH NO SIGNIFICANT WEATHER AND/OR OBSTRUCTIONS TO VISIBILITY.

KYZ001>023-026-027-061>063-070>075-292300-
WESTERN AND SOUTH CENTRAL KENTUCKY

CITY           SKY/WX    TMP DP  RH WIND       PRES   REMARKS
PADUCAH        MOSUNNY   91  74  57 NE12      30.08F HX 100
HENDERSON      SUNNY     91  70  49 NE9       30.08F HX  97
OWENSBORO      SUNNY     91  73  55 NE9       30.10F HX  99
HOPKINSVILLE   SUNNY     89  74  61 N10       30.08F HX  99
BOWLING GREEN  PTSUNNY   89  74  60 NE8       30.09F HX  98
GLASGOW        MOSUNNY   85  69  58 NE8       30.11S
$$

KYZ024-025-028>034-038-045-046-053-292300-
NORTH CENTRAL KENTUCKY

CITY           SKY/WX    TMP DP  RH WIND       PRES   REMARKS
LOUISVILLE/SDF MOSUNNY   92  66  42 N7        30.11F HX  94
LOUISVILLE/LOU SUNNY     93  67  42 N7        30.11F HX  96
FORT KNOX      SUNNY     89  70  53 N5        30.11F HX  94
$$

KYZ035>037-039>044-047>052-055>060-089>105-292300-
NORTHEAST KENTUCKY

CITY           SKY/WX    TMP DP  RH WIND       PRES   REMARKS
LEXINGTON      MOSUNNY   83  71  67 N15       30.15S
COVINGTON      CLOUDY    86  71  60 NE12      30.16F HX  91
FRANKFORT      CLOUDY    83  70  64 N6        30.14F
$$

KYZ054-064>069-076>088-106>120-292300-
SOUTHEAST KENTUCKY

CITY           SKY/WX    TMP DP  RH WIND       PRES   REMARKS
JACKSON        CLOUDY    72  67  84 VRB3      30.18R
LONDON         MOSUNNY   80  69  69 N7        30.14S
SOMERSET       MOSUNNY   82  64  54 CALM      30.14F
MIDDLESBORO    MOSUNNY   79  74  84 CALM      30.14S
MONTICELLO     LGT RAIN N/A N/A N/A N14       30.14S
$$





USA.gov is the U.S. government's official web portal to all federal, state and local government web resources and services.